Terminal Aerodrome Forecast
Issued by NWS Pendleton, OR

Home | Current Version | Previous Version | Text Only | Print | Product List | Glossary On
Versions: 1 2 3 4 5 6 7 8 9 10 11 12 13
000
FTUS46 KPDT 051140
TAFPDT
TAF
KPDT 051140Z 0512/0612 18006KT P6SM -RA OVC045
      TEMPO 0512/0516 4SM -RA BR BKN025 OVC035
     FM051900 28015G24KT P6SM VCSH SCT060 BKN090
     FM052100 31015G24KT P6SM FEW090 SCT120
     FM060200 29010KT P6SM SCT060 SCT200=

USA.gov is the U.S. government's official web portal to all federal, state and local government web resources and services.